Flag Weather past 2 weeks in Potsdam, Brandenburg, Germany

Now
35 °F

Overcast.


Feels Like: 29 °F
Forecast: 26 / 32 °F
Wind: 7 mph from East

Location: Potsdam

Current Time: Nov 28, 2014 at 2:41:43 AM

Latest Report: Nov 28, 2014 at 2:00 AM


Visibility: 11 mi

Pressure: 30.06 "Hg

Humidity: 88%

Dew point: 31 °F

Location of PotsdamLocation

Historic Weather in Potsdam — Graph

°F

Potsdam temperature yesterday

Maximum temperature yesterday: 39 °F (at 2:00 PM)
Minimum temperature yesterday: 31 °F (at 7:00 AM)
Average temperature yesterday: 35 °F

Past Weeks' High & Low Weather Summary

 TemperatureHumidityPressure
High53 °F (Nov 14, 12:00 PM)100% (Nov 13, 6:00 AM)30.38 "Hg (Nov 13, 6:00 AM)
Low31 °F (Nov 27, 7:00 AM)72% (Nov 22, 2:00 PM)29.57 "Hg (Nov 16, 2:00 PM)
Average43 °F93%30.07 "Hg
* Reported Nov 13 1:00 AM — Nov 28 1:00 AM, Potsdam, Weather by CustomWeather, © 2014

Note: Actual official high and low records may vary slightly from our data, if they occured in-between our weather recording intervals... More about our weather records

Advertising

Potsdam weather history for previous 24 hours

 ConditionsComfort  
Time TempWeatherWind HumidityBarometerVisibility
1:00 AM
Nov 28
36 °FOvercast.5 mph86%30.06 "Hg14 mi
12:00 AM36 °FOvercast.6 mph86%30.04 "Hg12 mi
11:00 PM
Nov 27
37 °FOvercast.5 mph85%30.04 "Hg6 mi
10:00 PM37 °FOvercast.7 mph86%30.04 "Hg6 mi
9:00 PM37 °FOvercast.6 mph87%30.03 "Hg7 mi
8:00 PM37 °FOvercast.7 mph87%30.02 "Hg6 mi
7:00 PM37 °FOvercast.7 mph88%30.02 "Hg5 mi
6:00 PM37 °FOvercast.6 mph87%30.01 "Hg5 mi
5:00 PM37 °FOvercast.6 mph86%30.01 "Hg5 mi
4:00 PM37 °FPartly sunny.5 mph87%30.00 "Hg5 mi
3:00 PM38 °FPassing clouds.6 mph81%30.00 "Hg6 mi
2:00 PM39 °FPassing clouds.6 mph78%30.00 "Hg8 mi
1:00 PM39 °FPassing clouds.7 mph78%30.01 "Hg8 mi
12:00 PM37 °FPassing clouds.6 mph80%30.02 "Hg7 mi
11:00 AM35 °FPassing clouds.5 mph88%30.04 "Hg5 mi
10:00 AM33 °FFog.6 mph94%30.05 "Hg4 mi
9:00 AM31 °FFog.5 mph96%30.06 "Hg3 mi
8:00 AM31 °FFog.6 mph96%30.06 "Hg3 mi
7:00 AM31 °FFog.6 mph98%30.06 "Hg4 mi
6:00 AM31 °FFog.6 mph98%30.06 "Hg4 mi
5:00 AM32 °FFog.6 mph98%30.06 "Hg4 mi
4:00 AM33 °FFog.6 mph98%30.07 "Hg4 mi
3:00 AM33 °FFog.6 mph98%30.08 "Hg4 mi
2:00 AM34 °FFog.5 mph98%30.10 "Hg4 mi
Weather by CustomWeather, © 2014

See weather overviewHow to use our weather pages